Volver al catálogo

STARLINK-32039

ActivoComunicacionesVLEO
NORAD 60604·PAYLOAD·🇺🇸 United States

Lanzado Aug 20, 2024 desde Cape Canaveral Space Force Station

Loading…

Próximos Pases (próximas 24 horas)

TLE

ActualizadoSource: CelesTrak SupGP

Época: Sep 14, 2026, 21:22 UTC

1 60604C 24150X   26257.89076389 -.00042181  00000+0 -12461-2 0  2570
2 60604  53.1570 149.6247 0001289  88.4410 104.0951 15.34416039    14

Sigue STARLINK-32039 en tiempo real con AllMySat

Download on the App Store